Location: Newark
(45.5000°N, 11.4167°E)
Time: 16:59:27
(UTC+00:00)

Vanguard 3 - Pass Details

Date: 01 September 2019
Orbit: 508 x 3262 km, 33.3° (Epoch: 18 October)

Event Time Altitude Azimuth Distance (km) Brightness Sun altitude
Rises 17:19:43 0° 266° (W) 5,135 13.5 4.9°
Reaches altitude 10° 17:24:34 10° 254° (WSW) 3,591 11.9 4.1°
Maximum altitude 17:30:41 22° 209° (SSW) 2,136 9.6 3.0°
Drops below altitude 10° 17:34:58 10° 160° (SSE) 2,399 9.3 2.3°
Sets 17:37:29 0° 143° (SE) 3,071 9.7 1.8°
